Fullerton, CA

2:03 AM PDT on October 24, 2017 (GMT -0700)
Fullerton Municipal

Weather History for KFUL - April, 2015

Change the Weather History Date:

Sunday, April 26, 2015

  Actual Average Record
Temperature  
Mean Temperature 64 °F 64 °F  
Max Temperature 76 °F 74 °F 101 °F (2004)
Min Temperature 52 °F 54 °F 49 °F (2009)
Degree Days  
Heating Degree Days 1 2  
Month to date heating degree days 31 94  
Since 1 July heating degree days 427 1186  
Cooling Degree Days 0 2  
Month to date cooling degree days 43 25  
Year to date cooling degree days 244 47  
Growing Degree Days 13 (Base 50)    
Moisture  
Dew Point 48 °F    
Average Humidity 56    
Maximum Humidity 83    
Minimum Humidity 29    
Precipitation  
Precipitation 0.00 in 0.03 in 0.09 in (2002)
Month to date precipitation 0.22 0.77  
Year to date precipitation 1.73 9.21  
Snow  
Snow 0.00 in - - ()
Month to date snowfall 0.0  
Snow Depth 0.00 in    
Sea Level Pressure  
Sea Level Pressure 29.94 in    
Wind  
Wind Speed 5 mph (SE)    
Max Wind Speed 14 mph    
Max Gust Speed 19 mph    
Visibility 10 miles    
Events      
T = Trace of Precipitation, MM = Missing Value Source: NWS Daily Summary

Daily Weather History Graph

Daily Weather History Graph

Search for Another Location

Airport or City:

Trip Planner

Search our weather history database for the weather conditions in past years. The results will help you decide how hot, cold, wet, or windy it might be!

Date:

Astronomy

Apr. 26, 2015 Rise Set
Actual Time 6:08 AM PDT 7:31 PM PDT
Civil Twilight 5:42 AM PDT 7:57 PM PDT
Nautical Twilight 5:10 AM PDT 8:29 PM PDT
Astronomical Twilight 4:37 AM PDT 9:02 PM PDT
Moon 1:08 PM PDT (4/26) 1:56 AM PDT (4/26)
Length of Visible Light 14h 15m
Length of Day
13h 23m
First Quarter, 58% of the Moon is Illuminated
Apr 26
First Quarter
May 3
Full
May 11
Last Quarter
May 17
New
May 25
First Quarter

Hourly Weather History & Observations

Time (PDT) Temp. Dew Point Humidity Pressure Visibility Wind Dir Wind Speed Gust Speed Precip Events Conditions
12:53 AM 55.9 °F 48.0 °F 75% 29.92 in 10.0 mi East 3.5 mph - N/A   Clear
1:53 AM 55.0 °F 48.9 °F 80% 29.91 in 10.0 mi East 4.6 mph - N/A   Clear
2:53 AM 54.0 °F 48.9 °F 83% 29.91 in 10.0 mi East 3.5 mph - N/A   Clear
3:53 AM 55.0 °F 48.9 °F 80% 29.92 in 10.0 mi ESE 3.5 mph - N/A   Clear
4:53 AM 53.1 °F 48.0 °F 83% 29.94 in 10.0 mi East 4.6 mph - N/A   Clear
5:53 AM 53.1 °F 46.9 °F 80% 29.95 in 10.0 mi East 3.5 mph - N/A   Clear
6:53 AM 53.1 °F 48.0 °F 83% 29.97 in 10.0 mi Calm Calm - N/A   Clear
7:53 AM 57.0 °F 48.9 °F 74% 29.99 in 10.0 mi East 5.8 mph - N/A   Clear
8:53 AM 62.1 °F 50.0 °F 65% 29.99 in 10.0 mi East 5.8 mph - N/A   Clear
9:53 AM 64.9 °F 48.9 °F 56% 30.00 in 10.0 mi Variable 4.6 mph - N/A   Clear
10:53 AM 69.1 °F 46.9 °F 45% 30.00 in 10.0 mi Variable 3.5 mph - N/A   Clear
11:53 AM 72.0 °F 46.0 °F 40% 29.98 in 10.0 mi Variable 4.6 mph - N/A   Clear
12:53 PM 72.0 °F 50.0 °F 46% 29.96 in 10.0 mi SSW 9.2 mph - N/A   Clear
1:53 PM 73.0 °F 48.9 °F 42% 29.95 in 10.0 mi SSW 10.4 mph - N/A   Clear
2:53 PM 73.9 °F 46.0 °F 37% 29.94 in 10.0 mi SSW 9.2 mph - N/A   Clear
3:53 PM 73.0 °F 48.0 °F 41% 29.92 in 10.0 mi South 8.1 mph - N/A   Clear
4:53 PM 73.9 °F 39.0 °F 28% 29.90 in 10.0 mi Calm Calm - N/A   Clear
5:53 PM 73.0 °F 44.1 °F 35% 29.88 in 10.0 mi Variable 6.9 mph - N/A   Clear
6:53 PM 70.0 °F 44.1 °F 39% 29.88 in 10.0 mi SSW 9.2 mph - N/A   Clear
7:53 PM 66.0 °F 48.0 °F 52% 29.89 in 10.0 mi SSE 5.8 mph - N/A   Clear
8:53 PM 64.9 °F 48.9 °F 56% 29.90 in 10.0 mi SSE 6.9 mph - N/A   Clear
9:53 PM 63.0 °F 51.1 °F 65% 29.92 in 10.0 mi SSE 4.6 mph - N/A   Clear
10:53 PM 63.0 °F 51.1 °F 65% 29.93 in 10.0 mi East 3.5 mph - N/A   Clear
11:53 PM 62.1 °F 51.1 °F 67% 29.94 in 10.0 mi East 5.8 mph - N/A   Clear